This demonstration page uses our WeatherBlox Daily Observations layout. Learn more.

Left ArrowRight Arrow

34.16533, -84.80231

Hourly Observations for August 22, 2019

Temp ( °F °C ) Dew Point ( °F °C ) Humidity (%) Winds ( mph kmh ) Pressure ( in mb ) Visibility ( mi km ) Precip ( " mm )
12:53 am 00:53 Clear 76 24.4 70 21.1 82 82 Calm 30.03 1017 10 16 0.00 0.00
1:53 am 01:53 Mostly Cloudy 76 24.4 71 21.7 85 85 Calm 30.01 1016 10 16 0.00 0.00
2:53 am 02:53 Clear 75 23.9 70 21.1 84 84 Calm 30.00 1016 10 16 0.00 0.00
3:53 am 03:53 Clear 76 24.4 70 21.1 82 82 Calm 29.99 1016 10 16 0.00 0.00
4:53 am 04:53 Clear 74 23.3 70 21.1 88 88 Calm 30.02 1017 10 16 0.00 0.00
5:53 am 05:53 Clear 72 22.2 69 20.6 91 91 Calm 30.04 1017 10 16 0.00 0.00
6:53 am 06:53 Clear 71 21.7 69 20.6 94 94 Calm 30.05 1018 10 16 0.00 0.00
7:53 am 07:53 Sunny 74 23.3 70 21.1 88 88 Calm 30.06 1018 9 14 0.00 0.00
8:53 am 08:53 Sunny 79 26.1 71 21.7 77 77 Calm 30.07 1018 10 16 0.00 0.00
9:53 am 09:53 Sunny 83 28.3 70 21.1 65 65 VRB 6 9 30.07 1018 10 16 0.00 0.00
10:53 am 10:53 Sunny 86 30 71 21.7 61 61 VRB 5 7 30.06 1018 10 16 0.00 0.00
11:53 am 11:53 Mostly Cloudy 86 30 71 21.7 61 61 Calm 30.05 1018 10 16 0.00 0.00
12:53 pm 12:53 Partly Cloudy 90 32.2 70 21.1 52 52 VRB 5 7 30.04 1017 10 16 0.00 0.00
1:53 pm 13:53 Mostly Sunny 91 32.8 70 21.1 50 50 Calm 30.01 1016 10 16 0.00 0.00
2:53 pm 14:53 Mostly Cloudy 92 33.3 69 20.6 47 47 VRB 6 9 29.98 1015 10 16 0.00 0.00
3:53 pm 15:53 Partly Cloudy 94 34.4 68 20 43 43 VRB 6 9 29.95 1014 10 16 0.00 0.00
4:53 pm 16:53 Sunny 94 34.4 68 20 43 43 VRB 6 9 29.94 1014 10 16 0.00 0.00
5:53 pm 17:53 Mostly Sunny 93 33.9 68 20 44 44 VRB 6 9 29.93 1014 10 16 0.00 0.00
6:53 pm 18:53 Partly Cloudy 90 32.2 69 20.6 50 50 VRB 5 7 29.93 1014 10 16 0.00 0.00
7:06 pm 19:06 Partly Cloudy with Nearby Thunderstorms 89 31.7 69 20.6 52 52 Calm 29.92 1013 10 16 0.00 0.00
7:23 pm 19:23 Mostly Cloudy 89 31.7 70 21.1 53 53 Calm 29.92 1013 10 16 0.00 0.00
7:53 pm 19:53 Mostly Cloudy 87 30.6 70 21.1 57 57 Calm 29.94 1014 10 16 0.00 0.00
8:51 pm 20:51 Mostly Cloudy with Nearby Thunderstorms 84 29 70 21 62 62 Calm 29.96 1015 10 16 0.00 0.00
8:53 pm 20:53 Mostly Cloudy with Nearby Thunderstorms 84 28.9 70 21.1 63 63 NNW 3 6 29.96 1014 10 16 0.00 0.00
9:06 pm 21:06 Mostly Cloudy 82 27.8 71 21.7 69 69 Calm 29.96 1015 10 16 0.00 0.00
9:53 pm 21:53 Mostly Cloudy 80 26.7 72 22.2 76 76 Calm 29.97 1015 10 16 0.00 0.00
10:53 pm 22:53 Mostly Cloudy 79 26.1 72 22.2 79 79 Calm 29.99 1016 10 16 0.00 0.00
11:53 pm 23:53 Cloudy with Thunderstorms 80 26.7 72 22.2 76 76 Calm 29.99 1016 10 16 0.00 0.00

Powered by AerisWeather